Flag for U.S.A. Weather past 2 weeks in Garden Grove, California, U.S.A.

Now
68 °F

Overcast.


Feels Like: 68 °F
Forecast: 54 / 71 °F
Wind: 7 mph from Southwest

Location: Fullerton Municipal Airport

Current Time: Jan 30, 2015 at 5:14:23 PM

Latest Report: Jan 30, 2015 at 3:53 PM


Visibility: 10 mi

Pressure: 29.83 "Hg

Humidity: 47%

Dew point: 47 °F

Location of Garden GroveLocation

Historic Weather in Garden Grove — Graph

°F

Garden Grove temperature yesterday

Maximum temperature yesterday: 77 °F (at 11:53 AM)
Minimum temperature yesterday: 60 °F (at 4:53 AM)
Average temperature yesterday: 67 °F

Past Weeks' High & Low Weather Summary

 TemperatureHumidityPressure
High84 °F (Jan 24, 2:53 PM)93% (Jan 20, 2:53 AM)30.24 "Hg (Jan 20, 2:53 AM)
Low46 °F (Jan 16, 5:53 AM)9% (Jan 23, 2:53 PM)29.83 "Hg (Jan 30, 1:53 PM)
Average63 °F50%30.07 "Hg
* Reported Jan 15 3:53 PM — Jan 30 3:53 PM, Garden Grove, Weather by CustomWeather, © 2014

Note: Actual official high and low records may vary slightly from our data, if they occured in-between our weather recording intervals... More about our weather records

Advertising

Garden Grove weather history for previous 24 hours

 ConditionsComfort  
Time TempWeatherWind HumidityBarometerVisibility
3:53 PM
Jan 30
68 °FOvercast.7 mph47%29.83 "Hg10 mi
2:53 PM68 °FPassing clouds.5 mph47%29.83 "Hg10 mi
1:53 PM69 °FOvercast.6 mph42%29.83 "Hg10 mi
12:53 PM70 °FPassing clouds.No wind42%29.85 "Hg10 mi
11:53 AM69 °FPartly sunny.3 mph45%29.88 "Hg10 mi
10:53 AM67 °FPartly sunny.No wind59%29.90 "Hg10 mi
9:53 AM65 °FScattered clouds.3 mph68%29.91 "Hg10 mi
8:53 AM63 °FOvercast.No wind73%29.91 "Hg10 mi
7:53 AM61 °FLight rain. Overcast.No wind72%29.91 "Hg10 mi
6:53 AM60 °FOvercast.3 mph75%29.91 "Hg10 mi
5:53 AM59 °FPassing clouds.5 mph81%29.91 "Hg10 mi
4:53 AM61 °FOvercast.No wind78%29.91 "Hg10 mi
3:53 AM61 °FOvercast.No wind78%29.91 "Hg10 mi
2:53 AM61 °FMostly cloudy.No wind75%29.93 "Hg10 mi
1:53 AM62 °FLight rain. Overcast.3 mph70%29.95 "Hg10 mi
12:53 AM63 °FMostly cloudy.No wind65%29.97 "Hg10 mi
11:53 PM
Jan 29
63 °FMostly cloudy.No wind65%30.00 "Hg10 mi
10:53 PM64 °FLight rain. Overcast.No wind61%30.00 "Hg10 mi
9:53 PM65 °FOvercast.5 mph56%30.00 "Hg10 mi
8:53 PM66 °FPassing clouds.5 mph52%30.01 "Hg10 mi
7:53 PM66 °FMostly cloudy.3 mph54%30.02 "Hg10 mi
6:53 PM67 °FLight rain. Overcast.No wind55%30.02 "Hg10 mi
5:53 PM67 °FOvercast.No wind57%29.99 "Hg10 mi
Weather by CustomWeather, © 2014

See weather overviewHow to use our weather pages